Location: Starlight Observatory
(38.4029°N, 85.8936°W)
Time: 10:11:48
(UTC-04:00)

Amateur Radio Satellites - All Passes

Search period start: 29 May 2015 09:41
Search period end: 30 May 2015 09:41
Location: Starlight Observatory, 38.4029°N, 85.8936°W

Satellite Date Start Highest point End Downlink Frequencies (MHz)
Time Altitude Azimuth
HO-68 29 May 09:43:18 09:49:39 35° 96° (E) 09:56:05 435.675
COMPASS 1 29 May 09:43:34 09:45:53 15° 91° (E) 09:48:22 437.405
PCSat 29 May 09:45:46 09:50:15 26° 50° (NE) 09:54:48 145.827
Cubesat XI-IV 29 May 09:46:04 09:48:50 14° 298° (WNW) 09:51:18 437.490
AAUSAT CUBESAT 2 29 May 09:53:18 09:55:54 17° 92° (E) 09:58:38 437.432
TIGRISAT 29 May 10:11:14 10:12:31 11° 64° (ENE) 10:14:03 435.000
GOMX 1 29 May 10:28:10 10:33:28 66° 285° (WNW) 10:38:24 467.674
UNISAT 6 29 May 10:30:43 10:33:55 19° 68° (ENE) 10:37:14 437.425
CINEMA 3 29 May 10:36:00 10:40:29 46° 98° (E) 10:44:45 145.822/145.860
BRITE-PL 29 May 10:38:46 10:43:53 36° 290° (WNW) 10:48:41 437.365/2234.400
QB50P2 29 May 10:44:26 10:45:18 11° 65° (ENE) 10:46:26 145.880/145.840
CANX-2 29 May 10:46:56 10:51:03 53° 285° (WNW) 10:55:08 2200.000
CUTE 1.7 + AOD 2 29 May 10:50:05 10:54:12 54° 285° (WNW) 10:58:17 437.475
DUCHIFAT 1 29 May 10:54:39 10:56:38 13° 66° (ENE) 10:58:50 145.980
POPSAT HIP 1 29 May 10:54:43 10:56:50 14° 66° (ENE) 10:59:09 437.405
ZACube-1 29 May 11:01:18 11:04:49 25° 94° (E) 11:08:20 437.345
Cosmos 2504 29 May 11:06:19 11:14:42 89° 276° (W) 11:22:30 435.465 / 435.565
BUGSAT 1 29 May 11:06:34 11:08:07 12° 65° (ENE) 11:09:52 437.445
Oscar 11 29 May 11:07:20 11:11:34 55° 100° (E) 11:15:46 145.826/435.025
SEEDS 29 May 11:08:48 11:12:43 40° 287° (WNW) 11:16:37 437.485
CUBEBUG 2 29 May 11:10:25 11:14:44 53° 99° (E) 11:18:55 437.445
DX 1 29 May 11:11:13 11:13:36 15° 91° (E) 11:16:11 434.975-435.025
ANTELSAT 29 May 11:12:37 11:17:09 52° 74° (ENE) 11:21:40 437.575/2403.000
DOVE 4 29 May 11:17:04 11:21:34 32° 290° (WNW) 11:25:47 437.250
COMPASS 1 29 May 11:17:54 11:21:47 39° 287° (WNW) 11:25:38 437.405
JUGNU 29 May 11:18:46 11:20:37 11° 175° (S) 11:22:30 437.505
AAUSAT CUBESAT 2 29 May 11:27:52 11:31:40 35° 287° (WNW) 11:35:25 437.432
PCSat 29 May 11:28:44 11:33:53 44° 248° (WSW) 11:38:58 145.827
HO-68 29 May 11:30:48 11:37:29 43° 293° (WNW) 11:44:04 435.675
VELOX 1 29 May 11:35:33 11:37:43 14° 90° (E) 11:40:07 145.980
QB50P1 29 May 11:36:21 11:40:21 40° 72° (ENE) 11:44:24 145.935-145.965
DELFI C3 29 May 11:37:30 11:41:32 88° 285° (WNW) 11:45:33 145.870
POLYITAN 1 29 May 11:39:43 11:43:49 44° 73° (ENE) 11:47:57 437.675
TIGRISAT 29 May 11:44:02 11:48:44 74° 258° (WSW) 11:53:22 435.000
RS-15 29 May 11:44:22 11:54:18 37° 320° (NW) 12:04:21 29.354- 29.394
ESTCUBE 1 29 May 11:49:16 11:50:36 11° 89° (E) 11:52:13 437.505/2401.250
UWE-3 29 May 11:52:18 11:56:37 62° 285° (WNW) 12:00:47 435.000/436.395/437.385
FUNcube-1 29 May 11:55:16 11:59:33 76° 285° (WNW) 12:03:44 145.935
UNISAT 6 29 May 12:05:59 12:10:26 41° 262° (W) 12:14:49 437.425
NANOSAT C BR1 29 May 12:06:23 12:10:40 90° 79° (E) 12:14:59 145.865
AISAT 29 May 12:06:41 12:10:42 32° 97° (E) 12:14:44 437.250
HUMSAT D 29 May 12:09:37 12:13:46 70° 101° (E) 12:17:50 437.325/437.525
GONETS M04 29 May 12:13:51 12:16:57 13° 78° (ENE) 12:20:49
CINEMA 3 29 May 12:14:18 12:17:18 17° 294° (WNW) 12:20:03 145.822/145.860
QB50P2 29 May 12:16:26 12:20:42 67° 259° (W) 12:25:00 145.880/145.840
SO-50 29 May 12:21:51 12:26:45 57° 56° (NE) 12:31:34 436.795
DUCHIFAT 1 29 May 12:27:54 12:32:03 51° 260° (W) 12:36:15 145.980
POPSAT HIP 1 29 May 12:28:10 12:32:20 50° 261° (W) 12:36:32 437.405
50 SAT 29 May 12:29:26 12:33:17 66° 100° (E) 12:37:06 437.505
UKube-1 29 May 12:33:08 12:37:28 68° 285° (WNW) 12:41:46 .
ZACube-1 29 May 12:37:36 12:41:08 25° 290° (WNW) 12:44:32 437.345
BUGSAT 1 29 May 12:39:03 12:43:08 55° 260° (W) 12:47:18 437.445
SRMSAT 29 May 12:41:28 12:42:45 11° 173° (S) 12:44:05 437.500
Oscar 11 29 May 12:45:21 12:47:19 13° 294° (WNW) 12:49:06 145.826/435.025
DX 1 29 May 12:45:56 12:50:09 45° 287° (WNW) 12:54:19 434.975-435.025
CUBEBUG 2 29 May 12:48:49 12:50:59 13° 295° (WNW) 12:52:56 437.445
ANTELSAT 29 May 12:51:36 12:54:16 14° 270° (W) 12:56:42 437.575/2403.000
Oscar 19 29 May 12:54:33 12:56:12 12° 62° (ENE) 12:58:09 437.125/150
CUBEBUG 1 29 May 13:00:41 13:05:08 65° 101° (ESE) 13:09:31 437.445
Cosmos 2504 29 May 13:04:20 13:09:12 16° 296° (WNW) 13:13:27 435.465 / 435.565
JUGNU 29 May 13:06:56 13:08:46 11° 185° (S) 13:10:33 437.505
VELOX 1 29 May 13:10:16 13:14:38 50° 287° (WNW) 13:18:57 145.980
DANDE 29 May 13:11:58 13:18:30 38° 88° (E) 13:26:09 436.750
QB50P1 29 May 13:13:42 13:16:26 16° 269° (W) 13:19:00 145.935-145.965
POLYITAN 1 29 May 13:17:32 13:20:00 14° 269° (W) 13:22:16 437.675
ESTCUBE 1 29 May 13:23:28 13:27:57 61° 285° (WNW) 13:32:26 437.505/2401.250
CUSAT 1 29 May 13:24:26 13:31:42 60° 93° (E) 13:39:53 437.405
SPROUT 29 May 13:29:30 13:33:28 35° 97° (E) 13:37:27 437.525
TISAT 1 29 May 13:42:21 13:46:16 35° 97° (E) 13:50:10 437.305
AISAT 29 May 13:43:36 13:47:08 22° 291° (WNW) 13:50:32 437.250
SO-50 29 May 14:03:44 14:06:53 16° 250° (WSW) 14:09:47 436.795
GONETS M04 29 May 14:03:44 14:12:32 77° 95° (E) 14:21:24
RS-15 29 May 14:04:40 14:11:27 17° 353° (N) 14:18:16 29.354- 29.394
Gurwin Techsat 1B 29 May 14:06:21 14:09:27 16° 64° (ENE) 14:12:46 435.225
ITUPSAT 1 29 May 14:16:03 14:17:56 12° 89° (E) 14:20:06 437.325
BEESAT 29 May 14:21:24 14:23:57 15° 90° (E) 14:26:46 436.000
SRMSAT 29 May 14:28:59 14:31:02 12° 183° (S) 14:33:04 437.500
SWISSCUBE 29 May 14:29:39 14:33:05 20° 93° (E) 14:36:41 437.505
Oscar 19 29 May 14:29:43 14:34:55 85° 257° (WSW) 14:40:10 437.125/150
CUBEBUG 1 29 May 14:39:16 14:41:00 12° 295° (WNW) 14:42:28 437.445
ITAMSAT 1 29 May 14:50:12 14:55:02 43° 71° (ENE) 14:59:58 435.822/435.867
DANDE 29 May 14:54:33 15:01:37 45° 288° (WNW) 15:09:40 436.750
SPROUT 29 May 15:06:13 15:09:20 19° 292° (WNW) 15:12:18 437.525
CUSAT 1 29 May 15:08:19 15:15:00 30° 294° (WNW) 15:21:57 437.405
AO-7 29 May 15:08:46 15:14:23 21° 55° (NE) 15:20:20 29.400- 29.500
O/OREOS (USA 219) 29 May 15:14:21 15:17:32 20° 102° (ESE) 15:20:50 437.305
TISAT 1 29 May 15:18:46 15:21:49 19° 292° (WNW) 15:24:43 437.305
JAS-2 29 May 15:22:19 15:26:26 19° 66° (ENE) 15:30:31 435.910
Cosmos 2499 29 May 15:28:09 15:35:52 51° 92° (E) 15:43:07 435.465 / 435.565
Gurwin Techsat 1B 29 May 15:43:43 15:48:58 63° 259° (W) 15:54:15 435.225
ITUPSAT 1 29 May 15:51:35 15:56:19 62° 286° (WNW) 16:01:03 437.325
BEESAT 29 May 15:57:32 16:02:12 52° 287° (WNW) 16:06:49 436.000
GONETS M04 29 May 16:03:52 16:10:30 22° 296° (WNW) 16:16:46
SWISSCUBE 29 May 16:06:40 16:11:07 39° 289° (WNW) 16:15:32 437.505
STARS 29 May 16:14:15 16:17:50 24° 95° (E) 16:21:27 437.465
RS-15 29 May 16:20:45 16:29:36 25° 28° (NNE) 16:39:03 29.354- 29.394
ITAMSAT 1 29 May 16:30:53 16:34:47 21° 267° (W) 16:38:33 435.822/435.867
HORYU 2 29 May 16:42:31 16:47:01 88° 258° (WSW) 16:51:30 437.375
O/OREOS (USA 219) 29 May 16:52:34 16:56:44 35° 297° (WNW) 17:00:52 437.305
KKS-1 29 May 16:52:45 16:57:14 74° 284° (WNW) 17:01:39 437.445
AO-7 29 May 16:57:59 17:06:18 86° 253° (WSW) 17:14:41 29.400- 29.500
JAS-2 29 May 17:04:37 17:11:15 65° 258° (WSW) 17:17:07 435.910
MOZHAYETS 4 29 May 17:07:45 17:09:19 12° 89° (E) 17:11:10
Cosmos 2499 29 May 17:22:27 17:29:19 29° 289° (WNW) 17:35:37 435.465 / 435.565
BEESAT 3 29 May 17:36:20 17:39:45 27° 114° (ESE) 17:43:16 437.485
Cubesat XI-IV 29 May 17:47:55 17:50:19 14° 62° (ENE) 17:53:00 437.490
STARS 29 May 17:50:28 17:54:16 28° 290° (WNW) 17:57:58 437.465
YUBILEINY 29 May 17:52:12 17:57:32 18° 62° (ENE) 18:03:20 435.215
BEESAT 2 29 May 18:28:19 18:32:25 86° 120° (ESE) 18:36:35 435.950
RS-15 29 May 18:32:58 18:44:38 73° 56° (NE) 18:56:46 29.354- 29.394
AIST 2 29 May 18:37:28 18:41:05 28° 114° (ESE) 18:44:48 435.215
MOZHAYETS 4 29 May 18:42:30 18:47:01 60° 285° (WNW) 18:51:31
CUBESAT XI-V 29 May 18:54:03 18:56:15 13° 89° (E) 18:58:42 437.345
AO-7 29 May 18:55:43 19:00:25 15° 272° (W) 19:04:32 29.400- 29.500
CUTE-I 29 May 19:03:04 19:08:18 68° 75° (ENE) 19:13:37 437.470
BEESAT 3 29 May 19:14:13 19:17:42 26° 310° (NW) 19:21:10 437.485
Cubesat XI-IV 29 May 19:24:32 19:29:51 77° 257° (WSW) 19:35:12 437.490
STRAND 1 29 May 19:44:49 19:48:21 19° 92° (E) 19:52:04 437.568
YUBILEINY 29 May 19:47:00 19:55:44 87° 265° (W) 20:04:27 435.215
Cosmos 2491 29 May 19:49:27 19:57:53 55° 91° (E) 20:06:26 435.465 / 435.565
GOMX 1 29 May 19:58:49 20:01:26 14° 63° (ENE) 20:04:21 467.674
BRITE-PL 29 May 20:09:32 20:13:51 28° 68° (ENE) 20:18:30 437.365/2234.400
BEESAT 2 29 May 20:09:46 20:11:09 11° 319° (NW) 20:12:22 435.950
HO-68 29 May 20:11:25 20:16:41 24° 61° (ENE) 20:22:10 435.675
AIST 2 29 May 20:15:58 20:19:38 27° 310° (NW) 20:23:18 435.215
AIST 1 29 May 20:19:00 20:21:05 14° 87° (E) 20:23:23
CUBESAT XI-V 29 May 20:29:29 20:34:06 56° 286° (WNW) 20:38:42 437.345
PRISM 29 May 20:35:17 20:39:27 73° 101° (ESE) 20:43:38 437.425
DOVE 4 29 May 20:43:17 20:47:22 25° 68° (ENE) 20:51:40 437.250
AAUSAT CUBESAT 2 29 May 20:45:25 20:45:35 10° 65° (ENE) 20:46:00 437.432
M-CUBED/EXP-1 PRIME 29 May 20:45:41 20:48:20 23° 101° (E) 20:51:05 437.505
CUTE-I 29 May 20:46:14 20:48:59 14° 271° (W) 20:51:26 437.470
RS-15 29 May 20:46:29 20:56:23 31° 254° (WSW) 21:06:08 29.354- 29.394
AUBIESAT-1 29 May 20:50:55 20:53:34 23° 101° (E) 20:56:19 437.475
Cosmos 2504 29 May 21:01:22 21:07:10 27° 70° (ENE) 21:13:10 435.465 / 435.565
STRAND 1 29 May 21:22:55 21:27:50 47° 288° (WNW) 21:32:44 437.568
GOMX 1 29 May 21:33:42 21:38:53 75° 258° (WSW) 21:44:22 467.674
CINEMA 3 29 May 21:35:32 21:40:08 38° 72° (ENE) 21:44:48 145.822/145.860
CANX-2 29 May 21:37:57 21:42:13 87° 78° (ENE) 21:46:29 2200.000
CUTE 1.7 + AOD 2 29 May 21:41:01 21:45:17 85° 77° (ENE) 21:49:33 437.475
YUBILEINY 29 May 21:46:40 21:51:28 15° 281° (W) 21:55:41 435.215
BRITE-PL 29 May 21:47:26 21:52:11 36° 265° (W) 21:57:13 437.365/2234.400
Cosmos 2491 29 May 21:47:33 21:55:13 31° 291° (WNW) 22:02:44 435.465 / 435.565
AIST 1 29 May 21:54:21 21:58:23 41° 282° (WNW) 22:02:28
ZACube-1 29 May 21:56:07 21:59:18 19° 68° (ENE) 22:02:36 437.345
HO-68 29 May 21:56:44 22:03:53 67° 257° (WSW) 22:11:02 435.675
SEEDS 29 May 21:58:49 22:03:02 73° 259° (W) 22:07:14 437.485
Oscar 11 29 May 22:00:43 22:04:37 35° 72° (ENE) 22:08:36 145.826/435.025
CUBEBUG 2 29 May 22:06:39 22:11:04 40° 73° (ENE) 22:15:31 437.445
DX 1 29 May 22:06:50 22:08:13 12° 64° (ENE) 22:09:49 434.975-435.025
COMPASS 1 29 May 22:07:05 22:11:15 73° 259° (WSW) 22:15:26 437.405
ISS 29 May 22:08:17 22:09:56 14° 130° (SE) 22:11:41 145.825
AAUSAT CUBESAT 2 29 May 22:16:35 22:20:43 65° 259° (W) 22:24:51 437.432
DOVE 4 29 May 22:20:03 22:24:53 40° 264° (W) 22:29:51 437.250
M-CUBED/EXP-1 PRIME 29 May 22:20:56 22:23:07 16° 295° (WNW) 22:25:14 437.505
DELFI C3 29 May 22:23:19 22:27:07 44° 74° (ENE) 22:30:58 145.870
AUBIESAT-1 29 May 22:26:04 22:28:17 17° 295° (WNW) 22:30:25 437.475
VELOX 1 29 May 22:33:15 22:34:25 11° 64° (ENE) 22:35:50 145.980
UWE-3 29 May 22:47:06 22:51:49 86° 74° (ENE) 22:56:30 435.000/436.395/437.385
FUNcube-1 29 May 22:48:50 22:53:24 69° 76° (ENE) 22:57:57 145.935
Cosmos 2504 29 May 22:54:01 23:00:53 49° 269° (W) 23:07:45 435.465 / 435.565
HUMSAT D 29 May 22:59:42 23:03:45 40° 73° (ENE) 23:07:47 437.325/437.525
AISAT 29 May 23:03:22 23:06:56 25° 69° (ENE) 23:10:38 437.250
ANTELSAT 29 May 23:08:51 23:09:55 11° 88° (E) 23:11:15 437.575/2403.000
50 SAT 29 May 23:12:44 23:16:13 30° 72° (ENE) 23:19:44 437.505
CINEMA 3 29 May 23:13:27 23:17:26 23° 268° (W) 23:21:20 145.822/145.860
UKube-1 29 May 23:26:11 23:30:30 83° 76° (ENE) 23:34:51 .
ZACube-1 29 May 23:31:05 23:35:25 39° 263° (W) 23:39:42 437.345
Oscar 11 29 May 23:37:52 23:40:57 18° 268° (W) 23:43:54 145.826/435.025
TIGRISAT 29 May 23:38:09 23:41:39 24° 94° (E) 23:45:09 435.000
DX 1 29 May 23:39:40 23:43:59 64° 259° (WSW) 23:48:21 434.975-435.025
ISS 29 May 23:42:52 23:46:03 54° 324° (NW) 23:49:15 145.825
CUBEBUG 2 29 May 23:44:22 23:47:55 20° 268° (W) 23:51:19 437.445
NANOSAT C BR1 29 May 23:54:07 23:56:42 16° 91° (E) 23:59:28 145.865
CUBEBUG 1 29 May 23:55:20 23:59:27 43° 73° (ENE) 00:03:39 437.445
DANDE 29 May 23:57:09 00:03:14 27° 64° (ENE) 00:08:23 436.750
UNISAT 6 29 May 23:59:31 00:03:42 44° 99° (E) 00:07:47 437.425
DELFI C3 30 May 00:00:39 00:02:31 13° 270° (W) 00:04:11 145.870
QB50P2 30 May 00:03:59 00:07:17 22° 94° (E) 00:10:38 145.880/145.840
VELOX 1 30 May 00:06:02 00:10:27 69° 259° (WSW) 00:14:54 145.980
CUSAT 1 30 May 00:07:02 00:13:18 38° 69° (ENE) 00:18:14 437.405
DUCHIFAT 1 30 May 00:14:28 00:18:05 27° 95° (E) 00:21:44 145.980
POPSAT HIP 1 30 May 00:15:09 00:18:50 28° 96° (E) 00:22:33 437.405
GONETS M04 30 May 00:16:28 00:24:15 35° 71° (ENE) 00:32:06
ESTCUBE 1 30 May 00:21:22 00:25:51 81° 258° (WSW) 00:30:21 437.505/2401.250
SPROUT 30 May 00:22:37 00:26:01 24° 70° (ENE) 00:29:31 437.525
BUGSAT 1 30 May 00:23:18 00:26:42 23° 94° (E) 00:30:09 437.445
PCSat 30 May 00:26:06 00:30:41 30° 109° (ESE) 00:35:22 145.827
FUNcube-1 30 May 00:29:28 00:30:15 10° 272° (W) 00:30:42 145.935
TISAT 1 30 May 00:33:31 00:36:47 22° 69° (ENE) 00:40:10 437.305
HUMSAT D 30 May 00:36:57 00:39:42 16° 269° (W) 00:42:15 437.325/437.525
AISAT 30 May 00:39:34 00:43:26 28° 264° (W) 00:47:16 437.250
ANTELSAT 30 May 00:42:55 00:47:11 56° 286° (WNW) 00:51:22 437.575/2403.000
50 SAT 30 May 00:48:08 00:50:59 18° 267° (W) 00:53:43 437.505
QB50P1 30 May 00:58:23 01:02:41 86° 283° (WNW) 01:06:56 145.935-145.965
VERMONT LUNAR 30 May 01:00:09 01:02:59 28° 152° (SSE) 01:05:49 437.305
POLYITAN 1 30 May 01:02:13 01:06:30 77° 284° (WNW) 01:10:44 437.675
TIGRISAT 30 May 01:14:43 01:18:23 26° 290° (WNW) 01:21:55 435.000
ISS 30 May 01:21:33 01:23:04 12° 343° (NNW) 01:24:33 145.825
ITUPSAT 1 30 May 01:21:56 01:24:06 13° 64° (ENE) 01:26:30 437.325
Cosmos 2499 30 May 01:23:17 01:26:01 13° 62° (ENE) 01:29:15 435.465 / 435.565
O/OREOS (USA 219) 30 May 01:24:41 01:28:36 30° 61° (ENE) 01:32:34 437.305
BEESAT 30 May 01:26:58 01:29:37 16° 65° (ENE) 01:32:29 436.000
NANOSAT C BR1 30 May 01:28:46 01:32:45 38° 288° (WNW) 01:36:40 145.865
CUBEBUG 1 30 May 01:33:27 01:36:05 15° 269° (W) 01:38:34 437.445
SWISSCUBE 30 May 01:35:10 01:38:34 20° 67° (ENE) 01:42:06 437.505
UNISAT 6 30 May 01:37:31 01:40:08 15° 294° (WNW) 01:42:34 437.425
QB50P2 30 May 01:39:29 01:43:12 29° 289° (WNW) 01:46:50 145.880/145.840
DANDE 30 May 01:39:54 01:47:00 49° 269° (W) 01:52:26 436.750
CUSAT 1 30 May 01:50:10 01:55:42 28° 275° (W) 02:00:04 437.405
DUCHIFAT 1 30 May 01:50:22 01:53:48 23° 290° (WNW) 01:57:07 145.980
POPSAT HIP 1 30 May 01:51:12 01:54:35 22° 291° (WNW) 01:57:51 437.405
BEESAT 3 30 May 01:57:08 01:59:04 13° 43° (NE) 02:01:08 437.485
SPROUT 30 May 01:58:15 02:02:00 28° 265° (W) 02:05:43 437.525
BUGSAT 1 30 May 01:58:30 02:02:09 27° 290° (WNW) 02:05:41 437.445
PHONESAT 2.4 30 May 02:07:50 02:10:49 26° 151° (SSE) 02:13:49 2401.200-2431.200
TISAT 1 30 May 02:08:43 02:12:26 28° 264° (W) 02:16:07 437.305
PCSat 30 May 02:09:01 02:14:00 36° 306° (NW) 02:19:00 145.827
GONETS M04 30 May 02:13:02 02:21:21 48° 270° (W) 02:29:30
SO-50 30 May 02:35:30 02:39:16 25° 112° (ESE) 02:43:15 436.795
VERMONT LUNAR 30 May 02:36:47 02:40:01 78° 347° (NNW) 02:43:14 437.305
Oscar 19 30 May 02:43:07 02:47:53 38° 97° (E) 02:52:39 437.125/150
BEESAT 2 30 May 02:49:10 02:52:53 32° 52° (NE) 02:56:34 435.950
ITUPSAT 1 30 May 02:56:48 03:01:31 64° 258° (WSW) 03:06:16 437.325
AIST 2 30 May 03:01:09 03:03:31 15° 43° (NE) 03:05:59 435.215
BEESAT 30 May 03:02:25 03:07:04 54° 260° (W) 03:11:44 436.000
O/OREOS (USA 219) 30 May 03:04:19 03:07:54 23° 257° (WSW) 03:11:22 437.305
ITAMSAT 1 30 May 03:05:31 03:08:51 17° 91° (E) 03:12:23 435.822/435.867
STARS 30 May 03:10:15 03:13:20 19° 68° (ENE) 03:16:33 437.465
SWISSCUBE 30 May 03:11:44 03:16:11 39° 262° (W) 03:20:38 437.505
Cosmos 2499 30 May 03:13:20 03:20:25 87° 84° (E) 03:27:42 435.465 / 435.565
BEESAT 3 30 May 03:33:29 03:37:32 66° 242° (WSW) 03:41:30 437.485
PHONESAT 2.4 30 May 03:45:13 03:48:43 85° 344° (NNW) 03:52:13 2401.200-2431.200
KKS-1 30 May 03:49:05 03:53:34 83° 79° (E) 03:58:06 437.445
Gurwin Techsat 1B 30 May 04:01:23 04:06:39 60° 100° (E) 04:11:54 435.225
MOZHAYETS 4 30 May 04:10:00 04:10:33 10° 64° (ENE) 04:11:23
VERMONT LUNAR 30 May 04:14:10 04:17:21 57° 5° (N) 04:20:31 437.305
SO-50 30 May 04:15:19 04:19:39 36° 309° (NW) 04:24:07 436.795
JAS-2 30 May 04:17:08 04:19:35 14° 90° (E) 04:22:24 435.910
Oscar 19 30 May 04:22:55 04:27:03 24° 293° (WNW) 04:31:04 437.125/150
BEESAT 2 30 May 04:27:40 04:30:47 21° 248° (WSW) 04:33:47 435.950
ISS 30 May 04:36:01 04:38:12 17° 23° (NNE) 04:40:25 145.825
HORYU 2 30 May 04:36:13 04:39:21 19° 93° (E) 04:42:37 437.375
AIST 2 30 May 04:38:22 04:42:33 61° 242° (WSW) 04:46:36 435.215
ITAMSAT 1 30 May 04:43:38 04:48:43 52° 288° (WNW) 04:53:47 435.822/435.867
STARS 30 May 04:45:24 04:49:33 37° 262° (W) 04:53:41 437.465
AO-7 30 May 05:01:43 05:09:10 36° 97° (E) 05:16:45 29.400- 29.500
Cosmos 2499 30 May 05:09:29 05:12:45 13° 278° (W) 05:15:32 435.465 / 435.565
PHONESAT 2.4 30 May 05:23:33 05:26:59 59° 2° (N) 05:30:26 2401.200-2431.200
MOZHAYETS 4 30 May 05:42:39 05:47:13 77° 258° (WSW) 05:51:48
Gurwin Techsat 1B 30 May 05:42:45 05:46:12 17° 296° (WNW) 05:49:26 435.225
VERMONT LUNAR 30 May 05:51:25 05:54:35 61° 200° (SSW) 05:57:44 437.305
CUBESAT XI-V 30 May 05:57:18 05:58:47 12° 65° (ENE) 06:00:32 437.345
JAS-2 30 May 06:00:07 06:05:15 61° 286° (WNW) 06:10:37 435.910
Cosmos 2491 30 May 06:02:24 06:09:09 25° 66° (ENE) 06:16:11 435.465 / 435.565
ISS 30 May 06:11:42 06:14:58 79° 221° (SW) 06:18:14 145.825
HORYU 2 30 May 06:12:05 06:16:08 34° 289° (WNW) 06:20:06 437.375
YUBILEINY 30 May 06:52:17 06:58:12 22° 82° (E) 07:04:31 435.215
AO-7 30 May 06:54:12 07:02:11 50° 295° (WNW) 07:10:05 29.400- 29.500
STRAND 1 30 May 06:59:17 07:03:17 24° 67° (ENE) 07:07:24 437.568
PHONESAT 2.4 30 May 07:01:43 07:05:11 68° 200° (SSW) 07:08:37 2401.200-2431.200
CUTE-I 30 May 07:22:04 07:26:43 30° 95° (E) 07:31:27 437.470
PRISM 30 May 07:23:59 07:27:49 42° 73° (ENE) 07:31:42 437.425
VERMONT LUNAR 30 May 07:29:48 07:31:22 13° 214° (SW) 07:32:51 437.305
CUBESAT XI-V 30 May 07:31:08 07:35:43 69° 259° (W) 07:40:20 437.345
M-CUBED/EXP-1 PRIME 30 May 07:32:17 07:35:53 30° 68° (ENE) 07:39:17 437.505
AUBIESAT-1 30 May 07:37:06 07:40:37 29° 68° (ENE) 07:43:57 437.475
Cubesat XI-IV 30 May 07:43:23 07:48:35 49° 99° (E) 07:53:48 437.490
Cosmos 2491 30 May 07:58:07 08:06:54 68° 267° (W) 08:15:33 435.465 / 435.565
AIST 1 30 May 08:02:47 08:06:53 38° 78° (ENE) 08:11:01
BRITE-PL 30 May 08:19:27 08:19:41 10° 84° (E) 08:20:22 437.365/2234.400
STRAND 1 30 May 08:37:36 08:42:19 37° 263° (W) 08:47:01 437.568
PHONESAT 2.4 30 May 08:40:42 08:42:55 16° 213° (SSW) 08:45:05 2401.200-2431.200
YUBILEINY 30 May 08:45:30 08:54:15 73° 279° (W) 09:03:00 435.215
RS-15 30 May 08:54:49 09:05:07 53° 112° (ESE) 09:15:44 29.354- 29.394
PRISM 30 May 09:01:20 09:03:32 14° 269° (W) 09:05:32 437.425
CUTE-I 30 May 09:02:02 09:06:48 32° 291° (WNW) 09:11:29 437.470
M-CUBED/EXP-1 PRIME 30 May 09:07:42 09:10:45 19° 260° (W) 09:13:33 437.505
AUBIESAT-1 30 May 09:12:22 09:15:25 19° 260° (W) 09:18:11 437.475
PCSat 30 May 09:15:26 09:19:19 20° 47° (NE) 09:23:18 145.827
Cubesat XI-IV 30 May 09:24:23 09:28:23 21° 294° (WNW) 09:32:13 437.490
CANX-2 30 May 09:25:58 09:28:34 16° 91° (E) 09:31:20 2200.000
HO-68 30 May 09:26:52 09:32:32 26° 93° (E) 09:38:23 435.675
CUTE 1.7 + AOD 2 30 May 09:29:00 09:31:32 16° 91° (E) 09:34:15 437.475
